Time,TemperatureF,DewpointF,PressureIn,WindDirection,WindDirectionDegrees,WindSpeedMPH,WindSpeedGustMPH,Humidity,HourlyPrecipIn,Conditions,Clouds,dailyrainin,SoftwareType,DateUTC
2013-02-11 00:01:00,22.0,17.0,-100.00,North,-999,0.0,0.0,81,-99.99,,,-99.99,,2013-02-11 08:01:00,
2013-02-11 00:11:00,22.0,17.0,-100.00,North,-999,0.0,0.0,82,-99.99,,,-99.99,,2013-02-11 08:11:00,
2013-02-11 00:21:00,22.0,17.0,-100.00,North,-999,0.0,0.0,82,-99.99,,,-99.99,,2013-02-11 08:21:00,
2013-02-11 00:31:00,22.0,17.0,-100.00,North,-999,0.0,0.0,82,-99.99,,,-99.99,,2013-02-11 08:31:00,
2013-02-11 00:42:00,22.0,17.0,-100.00,North,-999,0.0,0.0,82,-99.99,,,-99.99,,2013-02-11 08:42:00,
2013-02-11 00:52:00,22.0,17.0,-100.00,North,-999,0.0,0.0,82,-99.99,,,-99.99,,2013-02-11 08:52:00,
2013-02-11 01:01:00,22.0,18.0,-100.00,North,-999,0.0,0.0,84,-99.99,,,-99.99,,2013-02-11 09:01:00,
2013-02-11 01:12:00,22.0,18.0,-100.00,North,-999,0.0,0.0,84,-99.99,,,-99.99,,2013-02-11 09:12:00,
2013-02-11 01:21:00,22.0,18.0,-100.00,North,-999,0.0,0.0,84,-99.99,,,-99.99,,2013-02-11 09:21:00,
2013-02-11 01:31:00,22.0,18.0,-100.00,North,-999,0.0,0.0,86,-99.99,,,-99.99,,2013-02-11 09:31:00,
2013-02-11 01:41:00,21.0,18.0,-100.00,North,-999,0.0,0.0,87,-99.99,,,-99.99,,2013-02-11 09:41:00,
2013-02-11 01:52:00,21.0,18.0,-100.00,North,-999,0.0,0.0,87,-99.99,,,-99.99,,2013-02-11 09:52:00,
2013-02-11 02:01:00,21.0,18.0,-100.00,North,-999,0.0,0.0,87,-99.99,,,-99.99,,2013-02-11 10:01:00,
2013-02-11 02:11:00,21.0,18.0,-100.00,North,-999,0.0,0.0,87,-99.99,,,-99.99,,2013-02-11 10:11:00,
2013-02-11 02:21:00,21.0,18.0,-100.00,North,-999,0.0,0.0,87,-99.99,,,-99.99,,2013-02-11 10:21:00,
2013-02-11 02:31:00,21.0,18.0,-100.00,North,-999,0.0,0.0,89,-99.99,,,-99.99,,2013-02-11 10:31:00,
2013-02-11 02:41:00,21.0,18.0,-100.00,North,-999,0.0,0.0,89,-99.99,,,-99.99,,2013-02-11 10:41:00,
2013-02-11 02:51:00,21.0,18.0,-100.00,North,-999,0.0,0.0,90,-99.99,,,-99.99,,2013-02-11 10:51:00,
2013-02-11 03:01:00,21.0,18.0,-100.00,North,-999,0.0,0.0,90,-99.99,,,-99.99,,2013-02-11 11:01:00,
2013-02-11 03:11:00,21.0,19.0,-100.00,North,-999,0.0,0.0,91,-99.99,,,-99.99,,2013-02-11 11:11:00,
2013-02-11 03:22:00,21.0,19.0,-100.00,North,-999,0.0,0.0,91,-99.99,,,-99.99,,2013-02-11 11:22:00,
2013-02-11 03:32:00,21.0,19.0,-100.00,North,-999,0.0,0.0,91,-99.99,,,-99.99,,2013-02-11 11:32:00,
2013-02-11 03:42:00,22.0,20.0,-100.00,North,-999,0.0,0.0,91,-99.99,,,-99.99,,2013-02-11 11:42:00,
2013-02-11 03:52:00,22.0,20.0,-100.00,North,-999,0.0,0.0,91,-99.99,,,-99.99,,2013-02-11 11:52:00,
2013-02-11 04:03:00,22.0,20.0,-100.00,North,-999,0.0,0.0,91,-99.99,,,-99.99,,2013-02-11 12:03:00,
2013-02-11 04:12:00,22.0,20.0,-100.00,North,-999,0.0,0.0,91,-99.99,,,-99.99,,2013-02-11 12:12:00,
2013-02-11 04:22:00,22.0,20.0,-100.00,North,-999,0.0,0.0,91,-99.99,,,-99.99,,2013-02-11 12:22:00,
2013-02-11 04:31:00,23.0,20.0,-100.00,North,-999,0.0,0.0,91,-99.99,,,-99.99,,2013-02-11 12:31:00,
2013-02-11 04:42:00,23.0,20.0,-100.00,North,-999,0.0,0.0,91,-99.99,,,-99.99,,2013-02-11 12:42:00,
2013-02-11 04:52:00,23.0,20.0,-100.00,North,-999,0.0,0.0,91,-99.99,,,-99.99,,2013-02-11 12:52:00,
2013-02-11 05:01:00,23.0,20.0,-100.00,North,-999,0.0,0.0,91,-99.99,,,-99.99,,2013-02-11 13:01:00,
2013-02-11 05:11:00,22.0,20.0,-100.00,North,-999,0.0,0.0,91,-99.99,,,-99.99,,2013-02-11 13:11:00,
2013-02-11 05:21:00,22.0,20.0,-100.00,North,-999,0.0,0.0,91,-99.99,,,-99.99,,2013-02-11 13:21:00,
2013-02-11 05:32:00,22.0,20.0,-100.00,North,-999,0.0,0.0,92,-99.99,,,-99.99,,2013-02-11 13:32:00,
2013-02-11 05:41:00,21.0,19.0,-100.00,North,-999,0.0,0.0,92,-99.99,,,-99.99,,2013-02-11 13:41:00,
2013-02-11 05:51:00,21.0,19.0,-100.00,North,-999,0.0,0.0,92,-99.99,,,-99.99,,2013-02-11 13:51:00,
2013-02-11 06:11:00,20.0,18.0,-100.00,North,-999,0.0,0.0,93,-99.99,,,-99.99,,2013-02-11 14:11:00,
2013-02-11 06:21:00,20.0,18.0,-100.00,North,-999,0.0,0.0,93,-99.99,,,-99.99,,2013-02-11 14:21:00,
2013-02-11 06:32:00,20.0,18.0,-100.00,North,-999,0.0,0.0,93,-99.99,,,-99.99,,2013-02-11 14:32:00,
2013-02-11 06:42:00,19.0,17.0,-100.00,North,-999,0.0,0.0,94,-99.99,,,-99.99,,2013-02-11 14:42:00,
2013-02-11 06:53:00,19.0,17.0,-100.00,North,-999,0.0,0.0,94,-99.99,,,-99.99,,2013-02-11 14:53:00,
2013-02-11 07:01:00,19.0,17.0,-100.00,North,-999,0.0,0.0,94,-99.99,,,-99.99,,2013-02-11 15:01:00,
2013-02-11 07:11:00,19.0,18.0,-100.00,North,-999,0.0,0.0,94,-99.99,,,-99.99,,2013-02-11 15:11:00,
2013-02-11 07:22:00,19.0,18.0,-100.00,North,-999,0.0,0.0,94,-99.99,,,-99.99,,2013-02-11 15:22:00,
2013-02-11 07:32:00,19.0,18.0,-100.00,North,-999,0.0,0.0,94,-99.99,,,-99.99,,2013-02-11 15:32:00,
2013-02-11 07:42:00,19.0,17.0,-100.00,North,-999,0.0,0.0,94,-99.99,,,-99.99,,2013-02-11 15:42:00,
2013-02-11 07:52:00,19.0,17.0,-100.00,North,-999,0.0,0.0,94,-99.99,,,-99.99,,2013-02-11 15:52:00,
2013-02-11 08:01:00,18.0,17.0,-100.00,North,-999,0.0,0.0,94,-99.99,,,-99.99,,2013-02-11 16:01:00,
2013-02-11 08:11:00,18.0,17.0,-100.00,North,-999,0.0,0.0,94,-99.99,,,-99.99,,2013-02-11 16:11:00,
2013-02-11 08:21:00,18.0,17.0,-100.00,North,-999,0.0,0.0,94,-99.99,,,-99.99,,2013-02-11 16:21:00,
2013-02-11 08:32:00,18.0,17.0,-100.00,North,-999,0.0,0.0,94,-99.99,,,-99.99,,2013-02-11 16:32:00,
2013-02-11 08:42:00,19.0,18.0,-100.00,North,-999,0.0,0.0,94,-99.99,,,-99.99,,2013-02-11 16:42:00,
2013-02-11 08:52:00,19.0,18.0,-100.00,North,-999,0.0,0.0,94,-99.99,,,-99.99,,2013-02-11 16:52:00,
2013-02-11 09:01:00,21.0,19.0,-100.00,North,-999,0.0,0.0,94,-99.99,,,-99.99,,2013-02-11 17:01:00,
2013-02-11 09:11:00,27.0,23.0,-100.00,North,-999,0.0,0.0,83,-99.99,,,-99.99,,2013-02-11 17:11:00,
2013-02-11 09:21:00,27.0,23.0,-100.00,North,-999,0.0,0.0,83,-99.99,,,-99.99,,2013-02-11 17:21:00,
2013-02-11 09:32:00,27.0,23.0,-100.00,North,-999,0.0,0.0,83,-99.99,,,-99.99,,2013-02-11 17:32:00,
2013-02-11 09:41:00,30.0,23.0,-100.00,North,-999,0.0,0.0,73,-99.99,,,-99.99,,2013-02-11 17:41:00,
2013-02-11 09:52:00,30.0,23.0,-100.00,North,-999,0.0,0.0,73,-99.99,,,-99.99,,2013-02-11 17:52:00,
2013-02-11 10:01:00,32.0,22.0,-100.00,North,-999,0.0,0.0,65,-99.99,,,-99.99,,2013-02-11 18:01:00,
2013-02-11 10:11:00,34.0,22.0,-100.00,North,-999,0.0,0.0,61,-99.99,,,-99.99,,2013-02-11 18:11:00,
2013-02-11 10:21:00,34.0,22.0,-100.00,North,-999,0.0,0.0,61,-99.99,,,-99.99,,2013-02-11 18:21:00,
2013-02-11 10:32:00,35.0,21.0,-100.00,North,-999,0.0,0.0,56,-99.99,,,-99.99,,2013-02-11 18:32:00,
2013-02-11 10:42:00,35.0,21.0,-100.00,North,-999,0.0,0.0,56,-99.99,,,-99.99,,2013-02-11 18:42:00,
2013-02-11 10:52:00,35.0,21.0,-100.00,North,-999,0.0,0.0,56,-99.99,,,-99.99,,2013-02-11 18:52:00,
2013-02-11 11:02:00,37.0,21.0,-100.00,North,-999,0.0,0.0,53,-99.99,,,-99.99,,2013-02-11 19:02:00,
2013-02-11 11:11:00,39.0,21.0,-100.00,North,-999,0.0,0.0,48,-99.99,,,-99.99,,2013-02-11 19:11:00,
2013-02-11 11:21:00,39.0,21.0,-100.00,North,-999,0.0,0.0,48,-99.99,,,-99.99,,2013-02-11 19:21:00,
2013-02-11 12:11:00,45.0,20.0,-100.00,North,-999,0.0,0.0,36,-99.99,,,-99.99,,2013-02-11 20:11:00,
2013-02-11 12:21:00,45.0,20.0,-100.00,North,-999,0.0,0.0,36,-99.99,,,-99.99,,2013-02-11 20:21:00,
2013-02-11 12:32:00,47.0,20.0,-100.00,North,-999,0.0,0.0,33,-99.99,,,-99.99,,2013-02-11 20:32:00,
2013-02-11 12:41:00,48.0,19.0,-100.00,North,-999,0.0,0.0,31,-99.99,,,-99.99,,2013-02-11 20:41:00,
2013-02-11 12:52:00,48.0,19.0,-100.00,North,-999,0.0,0.0,31,-99.99,,,-99.99,,2013-02-11 20:52:00,
2013-02-11 13:02:00,48.0,19.0,-100.00,North,-999,0.0,0.0,31,-99.99,,,-99.99,,2013-02-11 21:02:00,
2013-02-11 13:11:00,50.0,19.0,-100.00,North,-999,0.0,0.0,29,-99.99,,,-99.99,,2013-02-11 21:11:00,
2013-02-11 13:21:00,50.0,19.0,-100.00,North,-999,0.0,0.0,29,-99.99,,,-99.99,,2013-02-11 21:21:00,
2013-02-11 13:31:00,50.0,21.0,-100.00,North,-999,0.0,0.0,32,-99.99,,,-99.99,,2013-02-11 21:31:00,
2013-02-11 13:41:00,50.0,21.0,-100.00,North,-999,0.0,0.0,32,-99.99,,,-99.99,,2013-02-11 21:41:00,
2013-02-11 13:51:00,50.0,21.0,-100.00,North,-999,0.0,0.0,32,-99.99,,,-99.99,,2013-02-11 21:51:00,
2013-02-11 14:01:00,49.0,21.0,-100.00,North,-999,0.0,0.0,33,-99.99,,,-99.99,,2013-02-11 22:01:00,
2013-02-11 14:11:00,48.0,21.0,-100.00,North,-999,0.0,0.0,35,-99.99,,,-99.99,,2013-02-11 22:11:00,
2013-02-11 14:21:00,48.0,21.0,-100.00,North,-999,0.0,0.0,35,-99.99,,,-99.99,,2013-02-11 22:21:00,
2013-02-11 14:32:00,48.0,22.0,-100.00,North,-999,0.0,0.0,36,-99.99,,,-99.99,,2013-02-11 22:32:00,
2013-02-11 14:41:00,47.0,23.0,-100.00,North,-999,0.0,0.0,37,-99.99,,,-99.99,,2013-02-11 22:41:00,
2013-02-11 14:52:00,47.0,23.0,-100.00,North,-999,0.0,0.0,37,-99.99,,,-99.99,,2013-02-11 22:52:00,
2013-02-11 15:01:00,47.0,22.0,-100.00,North,-999,0.0,0.0,38,-99.99,,,-99.99,,2013-02-11 23:01:00,
2013-02-11 15:11:00,46.0,23.0,-100.00,North,-999,0.0,0.0,39,-99.99,,,-99.99,,2013-02-11 23:11:00,
2013-02-11 15:21:00,46.0,23.0,-100.00,North,-999,0.0,0.0,39,-99.99,,,-99.99,,2013-02-11 23:21:00,
2013-02-11 15:32:00,44.0,23.0,-100.00,North,-999,0.0,0.0,42,-99.99,,,-99.99,,2013-02-11 23:32:00,
2013-02-11 15:41:00,43.0,23.0,-100.00,North,-999,0.0,0.0,44,-99.99,,,-99.99,,2013-02-11 23:41:00,
2013-02-11 15:52:00,42.0,23.0,-100.00,North,-999,0.0,0.0,45,-99.99,,,-99.99,,2013-02-11 23:52:00,
2013-02-11 16:01:00,42.0,23.0,-100.00,North,-999,0.0,0.0,45,-99.99,,,-99.99,,2013-02-12 00:01:00,
2013-02-11 16:11:00,42.0,23.0,-100.00,North,-999,0.0,0.0,46,-99.99,,,-99.99,,2013-02-12 00:11:00,
2013-02-11 16:21:00,42.0,23.0,-100.00,North,-999,0.0,0.0,46,-99.99,,,-99.99,,2013-02-12 00:21:00,
2013-02-11 16:32:00,42.0,23.0,-100.00,North,-999,0.0,0.0,46,-99.99,,,-99.99,,2013-02-12 00:32:00,
2013-02-11 16:42:00,42.0,23.0,-100.00,North,-999,0.0,0.0,47,-99.99,,,-99.99,,2013-02-12 00:42:00,
2013-02-11 16:52:00,42.0,23.0,-100.00,North,-999,0.0,0.0,47,-99.99,,,-99.99,,2013-02-12 00:52:00,
2013-02-11 17:01:00,41.0,23.0,-100.00,North,-999,0.0,0.0,48,-99.99,,,-99.99,,2013-02-12 01:01:00,
2013-02-11 17:11:00,41.0,23.0,-100.00,North,-999,0.0,0.0,48,-99.99,,,-99.99,,2013-02-12 01:11:00,
2013-02-11 17:21:00,41.0,23.0,-100.00,North,-999,0.0,0.0,48,-99.99,,,-99.99,,2013-02-12 01:21:00,
2013-02-11 17:32:00,40.0,22.0,-100.00,North,-999,0.0,0.0,48,-99.99,,,-99.99,,2013-02-12 01:32:00,
2013-02-11 17:42:00,39.0,21.0,-100.00,North,-999,0.0,0.0,48,-99.99,,,-99.99,,2013-02-12 01:42:00,
2013-02-11 17:51:00,39.0,21.0,-100.00,North,-999,0.0,0.0,48,-99.99,,,-99.99,,2013-02-12 01:51:00,
2013-02-11 18:01:00,39.0,21.0,-100.00,North,-999,0.0,0.0,49,-99.99,,,-99.99,,2013-02-12 02:01:00,
2013-02-11 18:11:00,38.0,21.0,-100.00,North,-999,0.0,0.0,50,-99.99,,,-99.99,,2013-02-12 02:11:00,
2013-02-11 18:21:00,38.0,21.0,-100.00,North,-999,0.0,0.0,50,-99.99,,,-99.99,,2013-02-12 02:21:00,
2013-02-11 18:31:00,37.0,21.0,-100.00,North,-999,0.0,0.0,52,-99.99,,,-99.99,,2013-02-12 02:31:00,
2013-02-11 18:41:00,35.0,21.0,-100.00,North,-999,0.0,0.0,56,-99.99,,,-99.99,,2013-02-12 02:41:00,
2013-02-11 18:52:00,35.0,21.0,-100.00,North,-999,0.0,0.0,56,-99.99,,,-99.99,,2013-02-12 02:52:00,
2013-02-11 19:02:00,35.0,21.0,-100.00,North,-999,0.0,0.0,56,-99.99,,,-99.99,,2013-02-12 03:02:00,
2013-02-11 19:11:00,34.0,21.0,-100.00,North,-999,0.0,0.0,59,-99.99,,,-99.99,,2013-02-12 03:11:00,
2013-02-11 19:21:00,34.0,21.0,-100.00,North,-999,0.0,0.0,59,-99.99,,,-99.99,,2013-02-12 03:21:00,
2013-02-11 19:31:00,32.0,21.0,-100.00,North,-999,0.0,0.0,62,-99.99,,,-99.99,,2013-02-12 03:31:00,
2013-02-11 19:41:00,32.0,21.0,-100.00,North,-999,0.0,0.0,65,-99.99,,,-99.99,,2013-02-12 03:41:00,
2013-02-11 19:51:00,32.0,21.0,-100.00,North,-999,0.0,0.0,65,-99.99,,,-99.99,,2013-02-12 03:51:00,
2013-02-11 20:01:00,31.0,22.0,-100.00,North,-999,0.0,0.0,68,-99.99,,,-99.99,,2013-02-12 04:01:00,
2013-02-11 20:11:00,30.0,22.0,-100.00,North,-999,0.0,0.0,71,-99.99,,,-99.99,,2013-02-12 04:11:00,
2013-02-11 20:21:00,30.0,22.0,-100.00,North,-999,0.0,0.0,71,-99.99,,,-99.99,,2013-02-12 04:21:00,
2013-02-11 20:31:00,29.0,22.0,-100.00,North,-999,0.0,0.0,74,-99.99,,,-99.99,,2013-02-12 04:31:00,
2013-02-11 20:41:00,29.0,22.0,-100.00,North,-999,0.0,0.0,74,-99.99,,,-99.99,,2013-02-12 04:41:00,
2013-02-11 20:51:00,29.0,22.0,-100.00,North,-999,0.0,0.0,74,-99.99,,,-99.99,,2013-02-12 04:51:00,
2013-02-11 21:01:00,29.0,22.0,-100.00,North,-999,0.0,0.0,76,-99.99,,,-99.99,,2013-02-12 05:01:00,
2013-02-11 21:11:00,28.0,22.0,-100.00,North,-999,0.0,0.0,78,-99.99,,,-99.99,,2013-02-12 05:11:00,
2013-02-11 21:21:00,28.0,22.0,-100.00,North,-999,0.0,0.0,78,-99.99,,,-99.99,,2013-02-12 05:21:00,
2013-02-11 21:31:00,28.0,22.0,-100.00,North,-999,0.0,0.0,79,-99.99,,,-99.99,,2013-02-12 05:31:00,
2013-02-11 21:42:00,28.0,23.0,-100.00,North,-999,0.0,0.0,80,-99.99,,,-99.99,,2013-02-12 05:42:00,
2013-02-11 21:52:00,28.0,23.0,-100.00,North,-999,0.0,0.0,80,-99.99,,,-99.99,,2013-02-12 05:52:00,
2013-02-11 22:01:00,28.0,24.0,-100.00,North,-999,0.0,0.0,84,-99.99,,,-99.99,,2013-02-12 06:01:00,
2013-02-11 22:12:00,28.0,24.0,-100.00,North,-999,0.0,0.0,84,-99.99,,,-99.99,,2013-02-12 06:12:00,
2013-02-11 22:21:00,28.0,24.0,-100.00,North,-999,0.0,0.0,84,-99.99,,,-99.99,,2013-02-12 06:21:00,
2013-02-11 22:31:00,28.0,24.0,-100.00,North,-999,0.0,0.0,86,-99.99,,,-99.99,,2013-02-12 06:31:00,
2013-02-11 22:42:00,29.0,26.0,-100.00,North,-999,0.0,0.0,87,-99.99,,,-99.99,,2013-02-12 06:42:00,
2013-02-11 22:51:00,29.0,26.0,-100.00,North,-999,0.0,0.0,87,-99.99,,,-99.99,,2013-02-12 06:51:00,
2013-02-11 23:01:00,30.0,27.0,-100.00,North,-999,0.0,0.0,86,-99.99,,,-99.99,,2013-02-12 07:01:00,
2013-02-11 23:11:00,30.0,27.0,-100.00,North,-999,0.0,0.0,86,-99.99,,,-99.99,,2013-02-12 07:11:00,
2013-02-11 23:21:00,30.0,27.0,-100.00,North,-999,0.0,0.0,86,-99.99,,,-99.99,,2013-02-12 07:21:00,
2013-02-11 23:31:00,30.0,26.0,-100.00,North,-999,0.0,0.0,86,-99.99,,,-99.99,,2013-02-12 07:31:00,
2013-02-11 23:41:00,30.0,26.0,-100.00,North,-999,0.0,0.0,87,-99.99,,,-99.99,,2013-02-12 07:41:00,
2013-02-11 23:52:00,30.0,26.0,-100.00,North,-999,0.0,0.0,87,-99.99,,,-99.99,,2013-02-12 07:52:00,